Ord, NE

9:01 AM CST on February 19, 2017 (GMT -0600)
Sharp

Weather History for KODX - November, 2010

Change the Weather History Date:

Friday, November 19, 2010

  Actual Average Record
Temperature  
Mean Temperature 34 °F 35 °F  
Max Temperature 42 °F 47 °F 73 °F (2007)
Min Temperature 26 °F 22 °F 10 °F (2016)
Degree Days  
Heating Degree Days 31 30  
Month to date heating degree days 445 493  
Since 1 July heating degree days 943 1113  
Cooling Degree Days 0 0  
Month to date cooling degree days 0 0  
Year to date cooling degree days 866 845  
Moisture  
Dew Point 24 °F    
Average Humidity 73    
Maximum Humidity 96    
Minimum Humidity 50    
Precipitation  
Precipitation 0.00 in 0.03 in 1.85 in (1930)
Month to date precipitation 0.16 0.75  
Year to date precipitation 26.30 24.03  
Sea Level Pressure  
Sea Level Pressure 30.03 in    
Wind  
Wind Speed 10 mph (NNE)    
Max Wind Speed 22 mph    
Max Gust Speed 29 mph    
Visibility 10 miles    
Events      
T = Trace of Precipitation, MM = Missing Value Source: NWS Daily Summary

Daily Weather History Graph

Daily Weather History Graph

Search for Another Location

Airport or City:

Trip Planner

Search our weather history database for the weather conditions in past years. The results will help you decide how hot, cold, wet, or windy it might be!

Date:

Astronomy

Nov. 19, 2010 Rise Set
Actual Time 7:29 AM CST 5:12 PM CST
Civil Twilight 6:59 AM CST 5:42 PM CST
Nautical Twilight 6:25 AM CST 6:16 PM CST
Astronomical Twilight 5:52 AM CST 6:49 PM CST
Moon 3:44 PM CST 5:28 AM CST
Length of Visible Light 10h 43m
Length of Day
9h 42m
Waxing Gibbous, 96% of the Moon is Illuminated
Nov 19
Waxing Gibbous
Nov 21
Full
Nov 28
Last Quarter
Dec 5
New
Dec 13
First Quarter

Hourly Weather History & Observations

Time (CST) Temp. Windchill Dew Point Humidity Pressure Visibility Wind Dir Wind Speed Gust Speed Precip Events Conditions
12:53 AM 41.0 °F 36.4 °F 34.0 °F 76% 29.84 in 10.0 mi SSE 6.9 mph - N/A   Clear
1:53 AM 39.2 °F 35.9 °F 33.8 °F 81% 29.79 in 10.0 mi SSE 4.6 mph - N/A   Clear
2:53 AM 34.0 °F 31.0 °F 32.0 °F 92% 29.82 in 10.0 mi SSE 3.5 mph - N/A   Clear
3:53 AM 28.0 °F - 27.0 °F 96% 29.86 in 9.0 mi Calm Calm - N/A   Clear
4:53 AM 27.0 °F - 25.0 °F 92% 29.89 in 8.0 mi Calm Calm - N/A   Clear
5:53 AM 37.0 °F 28.1 °F 30.0 °F 76% 29.91 in 10.0 mi North 15.0 mph - N/A   Clear
6:53 AM 37.0 °F 26.4 °F 28.9 °F 73% 29.94 in 10.0 mi North 20.7 mph 25.3 mph N/A   Clear
7:53 AM 36.0 °F 28.0 °F 28.0 °F 73% 29.98 in 10.0 mi North 11.5 mph - N/A   Clear
8:53 AM 36.0 °F 29.0 °F 28.0 °F 73% 30.02 in 10.0 mi North 9.2 mph - N/A   Clear
9:53 AM 37.0 °F 27.4 °F 25.0 °F 62% 30.04 in 10.0 mi North 17.3 mph 24.2 mph N/A   Clear
10:53 AM 39.0 °F 29.9 °F 27.0 °F 62% 30.05 in 10.0 mi North 17.3 mph 21.9 mph N/A   Partly Cloudy
11:53 AM 39.0 °F 31.4 °F 26.1 °F 60% 30.06 in 10.0 mi North 12.7 mph - N/A   Clear
12:53 PM 39.0 °F 31.0 °F 25.0 °F 57% 30.05 in 10.0 mi North 13.8 mph - N/A   Clear
1:53 PM 39.9 °F 32.9 °F 24.1 °F 53% 30.07 in 10.0 mi NNW 11.5 mph - N/A   Clear
2:53 PM 39.0 °F 31.0 °F 23.0 °F 53% 30.07 in 10.0 mi North 13.8 mph - N/A   Clear
3:53 PM 37.0 °F 28.5 °F 21.0 °F 52% 30.08 in 10.0 mi NNE 13.8 mph - N/A   Clear
4:53 PM 35.1 °F 27.9 °F 21.9 °F 59% 30.12 in 10.0 mi North 9.2 mph - N/A   Clear
5:53 PM 32.0 °F 23.6 °F 19.9 °F 61% 30.11 in 10.0 mi NNE 10.4 mph - N/A   Clear
6:53 PM 32.0 °F 24.2 °F 18.0 °F 56% 30.14 in 10.0 mi NE 9.2 mph - N/A   Clear
7:53 PM 30.0 °F 24.1 °F 18.0 °F 61% 30.16 in 10.0 mi NE 5.8 mph - N/A   Clear
8:53 PM 28.9 °F 21.1 °F 17.1 °F 61% 30.16 in 10.0 mi ENE 8.1 mph - N/A   Clear
9:53 PM 28.0 °F 21.7 °F 16.0 °F 61% 30.17 in 10.0 mi ENE 5.8 mph - N/A   Clear
10:53 PM 27.0 °F 20.5 °F 15.1 °F 61% 30.18 in 10.0 mi ENE 5.8 mph - N/A   Clear
11:28 PM 26.6 °F 20.0 °F 15.8 °F 64% 30.11 in 10.0 mi NE 5.8 mph - N/A   Mostly Cloudy
11:53 PM 27.0 °F 18.0 °F 15.1 °F 61% 30.18 in 10.0 mi NE 9.2 mph - N/A   Overcast